Location: Rimouski
(48.4330°N, 68.5170°W)
Time: 20:26:53
(UTC-04:00)

Daily predictions for brighter satellites

Satellite Brightness Start Highest point End
(mag) Time Altitude Azimuth Time Altitude Azimuth Time Altitude Azimuth
NOSS 3-4 (A) 4.4 19:44:26 10° NW 19:51:16 60° WSW 19:58:30 10° SSE
NOSS 3-4 (C) 4.4 19:44:33 10° NW 19:51:24 61° WSW 19:58:38 10° SSE
Cosmos 1697 Rocket 3.8 19:50:11 10° SSE 19:54:26 22° ESE 19:58:43 10° NE
EO 1 Delta rocket 4.0 19:55:47 10° NNE 20:00:22 56° E 20:05:29 10° S
Cosmos 1934 Rocket 4.0 19:54:30 10° S 20:00:39 82° E 20:06:57 10° N
Cosmos 2278 3.7 19:55:48 10° SSW 20:01:23 62° ESE 20:07:02 10° NNE
Cosmos 1633 4.4 20:00:34 10° SW 20:03:58 37° WNW 20:07:24 10° N
Resurs 01 Rocket 3.4 20:04:08 10° SSW 20:08:11 34° W 20:12:15 10° NNW
NOSS 7 (E) 4.3 20:07:41 10° SSW 20:11:01 70° SE 20:14:29 10° NE
Cosmos 1544 Rocket 4.0 20:06:50 10° SSW 20:11:12 67° WNW 20:15:38 10° N
ALOS 2.7 20:07:35 10° S 20:12:14 67° WSW 20:16:55 10° NNW
Cosmos 2208 Rocket 4.1 20:08:53 10° SSW 20:14:14 89° ESE 20:19:42 10° NNE
Cosmos 2369 3.7 20:09:50 10° SSW 20:15:29 71° ESE 20:21:11 10° NNE
Helios 1B rocket 4.2 20:13:06 10° N 20:16:58 38° WNW 20:20:47 10° SW
Cosmos 1980 Rocket 3.4 20:13:20 10° SSE 20:17:30 21° E 20:21:41 10° NE
Cosmos 2298 Rocket 4.0 20:12:10 10° NNW 20:17:31 75° ENE 20:22:50 10° SSE
Cosmos 1975 3.0 20:14:12 10° S 20:18:13 56° E 20:22:16 10° NNE
H-2A R/B 3.3 20:14:43 10° S 20:18:35 64° W 20:22:31 10° NNW
Lacrosse 5 rocket 2.6 20:18:48 10° WNW 20:22:07 30° SW 20:25:18 10° SSE
Cosmos 1937 Rocket 3.7 20:18:54 10° NNW 20:24:07 58° ENE 20:29:04 11° SE
Iridium 4 Rocket 3.3 20:19:38 10° N 20:24:50 72° E 20:29:31 10° S
Envisat 3.3 20:20:32 10° SE 20:25:24 50° ENE 20:30:19 10° N
USA 186 2.5 20:23:26 10° S 20:26:24 47° W 20:29:11 10° NNW
Cosmos 972 Rocket 4.4 20:28:50 10° NNW 20:34:39 72° ENE 20:41:05 10° SSE
Cosmos 990 Rocket 4.2 20:31:32 10° NNW 20:36:44 56° ENE 20:40:49 16° SE
Meteor 1-12 Rocket 4.3 20:32:28 10° S 20:38:13 90° W 20:44:09 10° NNE
H-2A R/B 3.8 20:37:12 11° E 20:39:35 15° NE 20:42:19 10° NNE
Cosmos 2263 Rocket 3.8 20:35:57 10° N 20:40:08 21° NE 20:43:48 12° E
Cosmos 1666 4.3 20:41:28 17° E 20:41:48 17° E 20:44:21 10° NE
Cosmos 2227 Rocket 3.7 20:37:07 10° NW 20:42:13 35° WSW 20:47:18 10° S
Cosmos 1656 3.6 20:36:48 10° SSW 20:42:21 67° ESE 20:47:52 10° NNE
Cosmos 2150 Rocket 4.1 20:38:28 10° NNW 20:43:38 78° WSW 20:48:42 10° SSE
Cosmos 2173 Rocket 4.2 20:38:33 10° SSE 20:44:41 53° E 20:50:49 10° NNE
Tiangong 1 2.4 20:43:52 10° WSW 20:46:29 25° S 20:47:24 21° SSE
Meteor 1-21 4.4 20:43:23 10° N 20:49:04 58° ENE 20:53:35 17° SSE
Cosmos 1825 Rocket 3.6 20:44:56 10° N 20:49:21 60° ENE 20:52:30 18° SSE
Cosmos 2322 Rocket 3.8 20:50:52 15° E 20:50:52 15° E 20:53:33 10° ENE
Cosmos 1500 3.1 20:48:46 10° S 20:52:32 87° E 20:56:21 10° N
Lacrosse 5 2.2 20:48:29 10° WNW 20:53:29 60° SW 20:56:52 20° SSE
ERS-1 Rocket 3.1 20:48:38 10° S 20:53:39 76° WSW 20:58:42 10° NNW
Cosmos 1939 Rocket 2.9 20:49:57 13° SSE 20:53:42 86° W 20:57:54 10° NNW
Cosmos 967 Rocket 4.5 20:47:45 10° NW 20:54:10 77° NE 20:58:36 21° SE
Cosmos 2297 Rocket 3.5 20:52:22 10° NW 20:57:32 37° WSW 21:02:40 10° S
Cosmos 2100 Rocket 3.9 20:52:00 10° S 20:58:14 72° E 21:04:26 10° NNE
SPOT 1/Viking Rocket 4.2 20:55:28 22° ESE 20:58:18 39° ENE 21:03:08 10° N
Cosmos 1953 Rocket 3.7 20:55:11 10° N 20:59:36 57° ENE 21:02:07 24° SSE
Cosmos 1340 2.6 20:56:09 10° N 20:59:57 67° ENE 21:01:55 27° SSE
Cosmos 1898 Rocket 4.2 20:57:36 10° NNW 21:02:45 53° WSW 21:07:49 10° S
Tsikada Rocket 4.5 20:56:41 10° N 21:02:51 46° ENE 21:06:32 23° SE
SPOT 5 2.9 21:00:32 21° SSE 21:03:53 68° ENE 21:08:38 10° N
Cosmos 2227 4.2 20:58:44 10° NNW 21:04:31 76° ENE 21:08:05 24° SE
Cosmos 2061 Rocket 3.9 20:58:56 10° S 21:05:12 73° E 21:11:27 10° NNE
YAOGAN 6 2.9 21:04:21 33° SE 21:05:40 51° ENE 21:09:18 10° N
H-2A R/B 1.9 21:03:38 23° SSE 21:06:11 84° ENE 21:10:22 10° NNW
Cosmos 1763 Rocket 3.8 21:01:52 12° S 21:06:16 42° ESE 21:11:02 10° NE
Cosmos 1125 Rocket 4.0 21:03:57 10° NNW 21:08:58 45° ENE 21:11:19 28° ESE
PSLV R/B 3.3 21:13:18 50° E 21:13:34 52° ENE 21:16:34 10° N
Cosmos 405 Rocket 4.1 21:11:38 10° NNE 21:14:43 23° ENE 21:14:51 23° ENE
MetOp-A 4.1 21:13:18 23° SSE 21:16:43 81° ENE 21:22:06 10° NNW
Cosmos 2228 3.8 21:17:46 31° E 21:17:54 31° E 21:21:41 10° NNE
RESURS DK-1 3.3 21:14:09 10° NW 21:18:06 43° WSW 21:20:28 21° S
Cosmos 1758 Rocket 3.4 21:14:01 10° N 21:18:25 76° E 21:20:18 33° SSE
deb Chang Zheng 4 3.5 21:15:22 10° NNE 21:19:51 74° ESE 21:23:15 17° S
USA 215 3.5 21:15:54 22° ESE 21:20:18 66° NNE 21:26:47 10° NW
Cosmos 468 Rocket 4.1 21:16:52 10° SSW 21:21:59 75° WNW 21:27:10 10° NNE
CZ-4 SHROUD 3.0 21:26:35 69° ENE 21:26:36 69° ENE 21:29:41 10° N
Cosmos 841 Rocket 3.5 21:24:57 18° S 21:28:42 58° ESE 21:33:50 10° NNE
Cosmos 1743 3.1 21:26:38 14° SSW 21:29:58 64° WNW 21:33:53 10° N
Cosmos 1459 Rocket 4.1 21:24:20 10° SSW 21:30:24 74° W 21:36:33 10° N
Cosmos 1725 Rocket 4.0 21:28:17 26° SSE 21:31:49 60° E 21:37:57 10° NNE
Cosmos 1814 Rocket 4.2 21:27:09 10° SSW 21:32:29 73° WNW 21:37:48 10° NNE
Terra 2.8 21:32:32 29° E 21:33:24 31° ENE 21:37:35 10° N
SL-19 R/B 4.3 21:28:01 10° NNE 21:33:26 53° E 21:35:23 35° SSE
Cosmos 1697 Rocket 3.1 21:32:17 10° SW 21:37:54 66° WNW 21:43:33 10° NNE
Cosmos 540 Rocket 4.3 21:45:47 31° E 21:45:47 31° E 21:49:33 10° NE
SL-16 R/B 2.6 21:46:17 39° ESE 21:46:17 39° ESE 21:51:29 10° NE
Cosmos 2058 Rocket 3.0 21:45:01 41° S 21:46:33 87° E 21:51:07 10° N
NOAA 11 4.1 21:46:05 38° SSE 21:48:18 89° WSW 21:53:49 10° NNW
ASTEX 1 3.6 21:44:42 10° N 21:49:42 70° W 21:52:41 24° SSW
Cosmos 1606 Rocket 4.3 21:50:20 18° SSW 21:53:26 53° WNW 21:57:49 10° N
Cosmos 372 Rocket 4.0 21:49:11 10° NNW 21:54:18 66° ENE 21:55:17 53° ESE
Cosmos 1842 3.9 21:50:32 10° NNW 21:54:22 52° W 21:55:11 43° SW
ARGOS 3.1 21:53:32 41° S 21:55:31 80° WSW 22:00:58 10° NNW
Cosmos 2233 Rocket 4.0 21:55:16 43° SE 21:56:59 58° E 22:03:07 10° NNE
Cosmos 1980 Rocket 2.4 21:55:16 10° SW 22:00:56 70° WNW 22:06:39 10° NNE
DELTA 2 DEB (DPAF) 4.1 22:01:17 62° E 22:01:31 64° ENE 22:05:58 10° N
Cosmos 2360 Rocket 3.9 22:04:06 17° ENE 22:04:06 17° ENE 22:06:02 10° NE
CARTOSAT-1 3.8 22:04:38 56° ENE 22:04:38 56° ENE 22:08:47 10° N
Cosmos 1707 3.9 22:01:28 10° N 22:04:19 34° NE 22:04:19 34° NE
Cosmos 1666 3.9 22:16:27 34° WSW 22:17:12 38° WNW 22:20:48 10° N
Meteor 2-5 Rocket 3.7 22:11:28 10° N 22:17:27 75° ENE 22:18:28 60° SE
H-2A R/B 1.8 22:17:51 73° SSE 22:18:20 89° E 22:23:18 10° NNW
CZ-4B R/B 3.3 22:15:34 10° NNE 22:20:21 80° WNW 22:21:05 63° SW
Cosmos 2263 Rocket 2.0 22:19:14 10° NNW 22:24:51 89° WSW 22:25:29 71° SSE
Cosmos 1812 Rocket 4.1 22:26:55 51° NNE 22:26:55 51° NNE 22:30:17 10° NNE
Cosmos 1375 Rocket 4.4 22:25:11 45° S 22:27:17 72° ESE 22:33:52 10° NE
Cosmos 2322 Rocket 2.1 22:32:37 62° SSW 22:33:38 90° NNW 22:39:18 10° NNE
Lacrosse 5 4.2 22:33:39 10° W 22:35:32 12° WSW 22:36:04 12° SW
Meteor 1-24 Rocket 3.8 22:30:50 10° N 22:36:53 66° ENE 22:37:21 63° ESE
GEOS 3 Rocket 4.0 22:35:51 10° NE 22:39:42 50° ENE 22:39:42 50° ENE
Cosmos 783 Rocket 4.4 22:41:34 89° WNW 22:41:34 89° WNW 22:46:54 10° NNE
Cosmos 1464 Rocket 4.0 22:41:24 60° ESE 22:41:40 60° E 22:47:55 10° NNE
IGS 5A 4.2 22:44:44 52° NW 22:44:44 52° NW 22:48:04 10° NNW
Nadezhda 4 Rocket 4.3 22:47:57 10° N 22:54:07 51° ENE 22:54:21 51° E
Cosmos 332 Rocket 4.2 22:56:02 60° WNW 22:56:05 60° WNW 23:01:00 10° NNE
COSMOS 2428 4.4 23:01:01 21° ENE 23:01:01 21° ENE 23:03:21 10° NE
Cosmos 371 Rocket 3.8 23:00:41 57° N 23:00:41 57° N 23:04:36 10° NNE
GP-B 3.9 22:56:29 10° N 23:00:16 48° WNW 23:00:16 48° WNW
USA 215 3.5 23:03:14 51° SW 23:03:28 52° SW 23:09:50 10° WNW
Terra 3.0 23:11:26 36° W 23:11:26 36° W 23:15:29 10° NNW
Cosmos 2278 Rocket 3.4 23:07:22 10° NNW 23:12:25 32° NE 23:13:01 31° ENE
ALOS 2 4.2 23:21:37 30° NNE 23:21:37 30° NNE 23:24:18 10° N
Cosmos 1891 Rocket 4.4 23:21:34 88° SSE 23:21:38 89° ESE 23:28:08 10° N
Meteor 1-22 Rocket 4.3 23:29:07 74° NW 23:29:07 74° NW 23:34:24 10° N
SL-16 R/B 3.3 23:28:05 29° W 23:30:20 41° NW 23:35:43 10° NNE
Cosmos 921 Rocket 4.5 23:27:23 10° NNW 23:30:09 37° N 23:30:09 37° N
Cosmos 1844 Rocket 2.9 23:31:41 10° NNW 23:36:28 65° N 23:36:28 65° N
Cosmos 1844 4.0 23:31:55 10° NNW 23:37:01 60° NNE 23:37:01 60° NNE
CZ-2C R/B 4.5 23:35:03 10° NE 23:37:52 21° ENE 23:37:52 21° ENE
Cosmos 2360 Rocket 2.5 23:45:50 64° NNW 23:45:50 64° NNW 23:50:58 10° NNE
Cosmos 1655 Rocket 4.4 23:47:01 10° N 23:52:57 54° ENE 23:52:57 54° ENE
